Location: LDNL
(36.4545°S, 141.6685°E)
Time: 08:50:12
(UTC+11:00)

N. Korean satellite - Visible Passes

Search period start: 01 December 2022 00:00
Search period end: 11 December 2022 00:00
Orbit: 421 x 453 km, 97.3° (Epoch: 30 November)

Date Brightness Start Highest point End Pass type
(mag) Time Alt. Az. Time Alt. Az. Time Alt. Az.
02 Dec 9.6 05:17:15 10° ENE 05:19:21 16° ESE 05:21:26 10° SSE visible
04 Dec 9.1 05:31:22 10° NE 05:34:06 24° ESE 05:36:51 10° SSE visible
07 Dec 9.9 05:08:49 10° E 05:10:06 12° ESE 05:11:22 10° SE visible
09 Dec 9.5 05:22:11 10° ENE 05:24:29 18° ESE 05:26:49 10° SSE visible
